Oklahoma City / Page Muni, OK

1:29 PM CST on November 20, 2019 (GMT -0600)
Oklahoma City / Page Muni

Weather History for KRCE - October, 2019

Change the Weather History Date:

Sunday, October 20, 2019

  Actual Average (KPWA) Record (KPWA)
Temperature  
Mean Temperature 65 °F -  
Max Temperature 82 °F 69 °F 88 °F (2003)
Min Temperature 48 °F 45 °F 31 °F (1976)
Growing Degree Days 15 (Base 50)    
Moisture  
Dew Point 48 °F    
Average Humidity 63    
Maximum Humidity 94    
Minimum Humidity 30    
Precipitation  
Precipitation 0.15 in - - ()
Sea Level Pressure  
Sea Level Pressure 29.70 in    
Wind  
Wind Speed 10 mph (SSE)    
Max Wind Speed 25 mph    
Max Gust Speed 38 mph    
Visibility 10 miles    
Events Rain , Thunderstorm    
Averages and records for this station are not official NWS values.
T = Trace of Precipitation, MM = Missing Value Source: NWS Daily Summary

Daily Weather History Graph

Daily Weather History Graph

Search for Another Location

Airport or City:

Astronomy

Oct. 20, 2019 Rise Set
Actual Time 7:41 AM CDT 6:49 PM CDT
Civil Twilight 7:15 AM CDT 7:15 PM CDT
Nautical Twilight 6:46 AM CDT 7:45 PM CDT
Astronomical Twilight 6:16 AM CDT 8:14 PM CDT
Moon No Moon Rise 2:02 PM CDT
Length of Visible Light 11h 59m
Length of Day
11h 08m
Waning Gibbous, 59% of the Moon is Illuminated
Oct 20
Waning Gibbous
Oct 21
Last Quarter
Oct 27
New
Nov 4
First Quarter
Nov 12
Full

Hourly Weather History & Observations

Time (CDT) Temp. Dew Point Humidity Pressure Visibility Wind Dir Wind Speed Gust Speed Precip Events Conditions
12:15 AM 48.2 °F 44.6 °F 87% 29.84 in 9.0 mi ESE 3.5 mph - N/A   Unknown
12:35 AM 48.2 °F 42.8 °F 82% 29.84 in 10.0 mi ESE 3.5 mph - N/A   Unknown
12:55 AM 50.0 °F 44.6 °F 82% 29.83 in 10.0 mi Calm Calm - N/A   Unknown
1:15 AM 53.6 °F 42.8 °F 67% 29.83 in 10.0 mi SE 5.8 mph - N/A   Unknown
1:35 AM 50.0 °F 42.8 °F 76% 29.83 in 10.0 mi Calm Calm - N/A   Unknown
1:55 AM 50.0 °F 42.8 °F 76% 29.83 in 10.0 mi Calm Calm - N/A   Unknown
2:15 AM 50.0 °F 44.6 °F 82% 29.82 in 10.0 mi Calm Calm - N/A   Unknown
2:35 AM 50.0 °F 44.6 °F 82% 29.82 in 10.0 mi SE 3.5 mph - N/A   Unknown
2:55 AM 48.2 °F 42.8 °F 82% 29.82 in 10.0 mi SSE 6.9 mph - N/A   Unknown
3:15 AM 48.2 °F 42.8 °F 82% 29.80 in 10.0 mi SE 10.4 mph - N/A   Unknown
3:35 AM 48.2 °F 44.6 °F 87% 29.80 in 10.0 mi SE 9.2 mph - N/A   Unknown
4:15 AM 50.0 °F 44.6 °F 82% 29.79 in 10.0 mi SE 8.1 mph - N/A   Unknown
4:35 AM 50.0 °F 44.6 °F 82% 29.79 in 10.0 mi SE 8.1 mph - N/A   Unknown
4:55 AM 48.2 °F 44.6 °F 87% 29.78 in 10.0 mi ESE 9.2 mph - N/A   Unknown
5:15 AM 51.8 °F 48.2 °F 88% 29.78 in 10.0 mi SE 10.4 mph - N/A   Unknown
5:35 AM 50.0 °F 46.4 °F 87% 29.78 in 10.0 mi ESE 9.2 mph - N/A   Unknown
5:55 AM 50.0 °F 46.4 °F 87% 29.78 in 10.0 mi SE 6.9 mph - N/A   Unknown
6:15 AM 50.0 °F 46.4 °F 87% 29.79 in 10.0 mi SSE 6.9 mph - N/A   Unknown
6:35 AM 48.2 °F 46.4 °F 93% 29.79 in 10.0 mi SE 8.1 mph - N/A   Unknown
6:55 AM 50.0 °F 48.2 °F 94% 29.79 in 10.0 mi SSE 6.9 mph - N/A   Unknown
7:15 AM 50.0 °F 46.4 °F 87% 29.79 in 10.0 mi SSE 9.2 mph - N/A   Unknown
7:35 AM 50.0 °F 48.2 °F 94% 29.78 in 10.0 mi SSE 10.4 mph - N/A   Unknown
7:55 AM 50.0 °F 48.2 °F 94% 29.78 in 10.0 mi SSE 8.1 mph - N/A   Unknown
8:15 AM 50.0 °F 48.2 °F 94% 29.78 in 10.0 mi SSE 6.9 mph - N/A   Unknown
8:35 AM 53.6 °F 50.0 °F 88% 29.78 in 10.0 mi SSE 10.4 mph - N/A   Unknown
8:55 AM 55.4 °F 51.8 °F 88% 29.77 in 10.0 mi SSE 13.8 mph - N/A   Unknown
9:15 AM 57.2 °F 53.6 °F 88% 29.78 in 10.0 mi North - - N/A   Unknown
9:35 AM 59.0 °F 53.6 °F 82% 29.79 in 10.0 mi SSE 13.8 mph 19.6 mph N/A   Unknown
9:55 AM 60.8 °F 53.6 °F 77% 29.79 in 10.0 mi SSE 17.3 mph - N/A   Unknown
10:15 AM 62.6 °F 53.6 °F 72% 29.78 in 10.0 mi SSE 18.4 mph 25.3 mph N/A   Unknown
10:35 AM 64.4 °F 53.6 °F 68% 29.78 in 10.0 mi South 19.6 mph 27.6 mph N/A   Unknown
10:55 AM 66.2 °F 53.6 °F 64% 29.76 in 10.0 mi South 23.0 mph - N/A   Unknown
11:15 AM 68.0 °F 53.6 °F 60% 29.75 in 10.0 mi South 21.9 mph 27.6 mph N/A   Unknown
11:35 AM 69.8 °F 51.8 °F 53% 29.74 in 10.0 mi South 19.6 mph 28.8 mph N/A   Unknown
11:55 AM 71.6 °F 51.8 °F 50% 29.73 in 10.0 mi South 19.6 mph 27.6 mph N/A   Unknown
12:15 PM 71.6 °F 51.8 °F 50% 29.73 in 10.0 mi South 20.7 mph 26.5 mph N/A   Unknown
12:55 PM 75.2 °F 50.0 °F 41% 29.71 in 10.0 mi South 24.2 mph 31.1 mph N/A   Unknown
1:35 PM 77.0 °F 50.0 °F 39% 29.67 in 10.0 mi South 23.0 mph 31.1 mph N/A   Unknown
2:15 PM 78.8 °F 48.2 °F 34% 29.63 in 10.0 mi South 19.6 mph 27.6 mph N/A   Unknown
2:35 PM 80.6 °F 48.2 °F 32% 29.61 in 10.0 mi South 20.7 mph 28.8 mph N/A   Unknown
2:55 PM 80.6 °F 50.0 °F 34% 29.60 in 10.0 mi South 24.2 mph 35.7 mph N/A   Unknown
3:15 PM 80.6 °F 50.0 °F 34% 29.59 in 10.0 mi South 20.7 mph 32.2 mph N/A   Unknown
3:35 PM 82.4 °F 51.8 °F 35% 29.58 in 10.0 mi South 21.9 mph 31.1 mph N/A   Unknown
3:55 PM 80.6 °F 48.2 °F 32% 29.57 in 10.0 mi South 23.0 mph 32.2 mph N/A   Unknown
4:15 PM 82.4 °F 48.2 °F 30% 29.57 in 10.0 mi South 23.0 mph - N/A   Unknown
4:35 PM 80.6 °F 50.0 °F 34% 29.57 in 10.0 mi South 24.2 mph 33.4 mph N/A   Unknown
4:55 PM 82.4 °F 50.0 °F 32% 29.57 in 10.0 mi South 24.2 mph 31.1 mph N/A   Unknown
5:15 PM 82.4 °F 50.0 °F 32% 29.57 in 10.0 mi South 17.3 mph 27.6 mph N/A   Unknown
5:35 PM 80.6 °F 50.0 °F 34% 29.56 in 10.0 mi South 16.1 mph 24.2 mph N/A   Unknown
5:55 PM 80.6 °F 51.8 °F 37% 29.56 in 10.0 mi SSE 13.8 mph 19.6 mph N/A   Unknown
6:15 PM 77.0 °F 51.8 °F 41% 29.56 in 10.0 mi SSE 11.5 mph - N/A   Unknown
6:35 PM 75.2 °F 53.6 °F 47% 29.56 in 10.0 mi SE 11.5 mph - N/A   Unknown
6:55 PM 75.2 °F 53.6 °F 47% 29.55 in 10.0 mi SE 11.5 mph - N/A   Unknown
7:15 PM 75.2 °F 55.4 °F 50% 29.56 in 10.0 mi SE 11.5 mph - N/A   Unknown
7:35 PM 73.4 °F 57.2 °F 57% 29.54 in 10.0 mi SE 11.5 mph - N/A Thunderstorm Unknown
8:15 PM 71.6 °F 59.0 °F 64% 29.53 in 7.0 mi SE 9.2 mph - N/A Rain , Thunderstorm Light Thunderstorms and Rain
8:35 PM 68.0 °F 60.8 °F 78% 29.55 in 9.0 mi WNW 9.2 mph 17.3 mph N/A Thunderstorm Thunderstorm
8:55 PM 69.8 °F 62.6 °F 78% 29.55 in 4.0 mi SSW 13.8 mph 24.2 mph 0.14 in Rain , Thunderstorm Rain
9:15 PM 64.4 °F 48.2 °F 56% 29.58 in 10.0 mi NW 25.3 mph 38.0 mph N/A Thunderstorm Unknown
9:35 PM 62.6 °F 46.4 °F 55% 29.57 in 10.0 mi NW 23.0 mph - N/A   Unknown
9:55 PM 62.6 °F 42.8 °F 48% 29.57 in 10.0 mi NW 23.0 mph 32.2 mph 0.01 in   Unknown
10:15 PM 60.8 °F 39.2 °F 45% 29.62 in 10.0 mi NNW 20.7 mph 33.4 mph N/A   Unknown
10:35 PM 60.8 °F 37.4 °F 42% 29.65 in 10.0 mi NW 16.1 mph - N/A   Unknown
10:55 PM 60.8 °F 35.6 °F 39% 29.66 in 10.0 mi NNW 12.7 mph - N/A   Unknown
11:15 PM 59.0 °F 35.6 °F 42% 29.65 in 10.0 mi North 10.4 mph - N/A   Unknown
11:35 PM 57.2 °F 35.6 °F 44% 29.66 in 10.0 mi NNW 9.2 mph - N/A   Unknown
11:55 PM 55.4 °F 35.6 °F 47% 29.66 in 10.0 mi NNW 9.2 mph - N/A   Unknown